Location: Caltech
(34.1382°N, 118.1253°W)
Time: 17:16:22
(UTC-07:00)

Cosmos 1484 Rocket - Visible Passes

Search period start: 22 September 2014 00:00
Search period end: 02 October 2014 00:00
Orbit: 516 x 573 km, 97.4° (Epoch: 22 September)

Date Brightness Start Highest point End Pass type
(mag) Time Alt. Az. Time Alt. Az. Time Alt. Az.
22 Sep 3.1 19:57:18 22° SE 19:59:22 42° ENE 20:03:03 10° N visible
23 Sep 3.4 19:51:26 21° SE 19:53:26 35° ENE 19:57:00 10° N visible
23 Sep 5.8 21:27:03 11° WSW 21:28:12 12° W 21:29:45 10° WNW visible
24 Sep 3.6 19:45:34 19° ESE 19:47:30 30° ENE 19:50:55 10° NNE visible
24 Sep 5.6 21:21:11 13° WSW 21:22:11 14° W 21:24:21 10° WNW visible
25 Sep 3.8 19:39:42 18° ESE 19:41:34 25° ENE 19:44:48 10° NNE visible
25 Sep 5.4 21:15:18 16° WSW 21:16:10 17° W 21:18:47 10° NW visible
26 Sep 4.1 19:33:49 16° ESE 19:35:38 22° ENE 19:38:39 10° NNE visible
26 Sep 5.1 21:09:26 19° WSW 21:10:09 20° W 21:13:06 10° NW visible
27 Sep 4.3 19:27:57 14° ESE 19:29:42 19° ENE 19:32:27 10° NNE visible
27 Sep 4.9 21:03:33 23° WSW 21:04:08 24° W 21:07:21 10° NW visible
28 Sep 4.5 19:22:04 13° E 19:23:46 16° ENE 19:26:10 10° NNE visible
28 Sep 4.6 20:57:40 28° WSW 20:58:07 29° W 21:01:34 10° NW visible
29 Sep 4.6 19:16:11 11° E 19:17:50 14° ENE 19:19:48 10° NE visible
29 Sep 4.3 20:51:47 34° WSW 20:52:06 34° W 20:55:43 10° NNW visible
30 Sep 4.8 19:10:34 10° E 19:11:54 12° ENE 19:13:14 10° NE visible
30 Sep 3.9 20:45:54 41° WSW 20:46:05 41° W 20:49:50 10° NNW visible
01 Oct 3.6 20:40:01 50° WSW 20:40:04 50° W 20:43:56 10° NNW visible
